This is the latest recevied weather packets stored in our database for station/object BARLOW-WX. If no packets are shown the sender has not sent any weather packets the latest 10 day(s).
| Time | Temp. | Humidity | Pressure | Rain* | Wind** | Luminosity | Snow |
|---|---|---|---|---|---|---|---|
| 1788140780 | 71° F | 83% | 740.1 mmHg | 0 in | - | - | - |
| 1788139882 | 71° F | 83% | 740.1 mmHg | 0 in | - | - | - |
| 1788138076 | 72° F | 83% | 740.1 mmHg | 0 in | - | - | - |
| 1788137180 | 72° F | 80% | 740.5 mmHg | 0 in | - | - | - |
| 1788136279 | 73° F | 77% | 740.5 mmHg | 0 in | - | - | - |
| 1788135378 | 73° F | 77% | 740.5 mmHg | 0 in | - | - | - |
| 1788134491 | 74° F | 77% | 740.5 mmHg | 0 in | - | - | - |
| 1788132683 | 75° F | 70% | 740.7 mmHg | 0 in | - | - | - |
| 1788131779 | 75° F | 70% | 740.7 mmHg | 0 in | - | - | - |
| 1788130883 | 76° F | 70% | 740.7 mmHg | 0 in | - | - | - |
| 1788129982 | 76° F | 63% | 741.1 mmHg | 0 in | - | - | - |
| 1788129083 | 78° F | 68% | 741.4 mmHg | 0 in | - | - | - |
| 1788128183 | 77° F | 68% | 741.3 mmHg | 0 in | - | - | - |
| 1788127288 | 77° F | 68% | 741.3 mmHg | 0 in | - | - | - |
| 1788126382 | 78° F | 66% | 740.9 mmHg | 0 in | - | - | - |
| 1788125483 | 79° F | 64% | 741.2 mmHg | 0 in | - | - | - |
| 1788124582 | 81° F | 64% | 741.3 mmHg | 0 in | - | - | - |
| 1788123679 | 81° F | 64% | 741.3 mmHg | 0 in | - | - | - |
| 1788122781 | 79° F | 65% | 741.2 mmHg | 0 in | - | - | - |
| 1788121881 | 80° F | 63% | 740.8 mmHg | 0 in | - | - | - |
| 1788120982 | 81° F | 63% | 740.9 mmHg | 0 in | - | - | - |
| 1788120083 | 81° F | 66% | 741.1 mmHg | 0 in | - | - | - |
| 1788119181 | 80° F | 72% | 740.9 mmHg | 0 in | - | - | - |
| 1788118280 | 80° F | 72% | 740.9 mmHg | 0 in | - | - | - |
| 1788117381 | 79° F | 69% | 740.9 mmHg | 0 in | - | - | - |
* Rain latest hour (hover to see other rain measurements)
** Current wind speed in m/s (hover to see current wind gust speed)